SCP
1 1 2 2 2 2 2 2 1 1 0 0 1 1 1 1 1 1 1 0 0 0 0 1 1 1 1 1 1 1 1 2 2 2 2 2 2 2 2 2 2 1 1
2 2 2 2 2 2 2 1 1 1 0 0 0 1 1 1 0 0 0 0 0 0 0 1 1 1 1 1 1 1 1 2 2 2 2 2 2 2 2 2 2 1 1
2 2 2 2 2 2 2 1 1 1 0 0 0 0 1 0 0 0 0 0 0 0 0 0 1 1 1 1 1 1 1 1 2 2 2 2 2 2 2 2 2 2 1
2 2 2 2 2 2 2 1 1 0 0 0 0 0 0 0 0 0 0 0 0 0 0 0 0 1 1 1 1 1 1 1 2 2 2 2 2 2 2 3 2 2 2
1 2 3 3 2 2 2 1 1 0 0 0 0 0 0 0 0 0 0 0 0 0 0 0 0 0 0 1 1 1 1 1 1 1 2 2 2 2 2 2 3 3 2
1 2 2 3 3 2 2 1 1 0 0 0 0 0 0 0 0 0 0 0 0 0 0 0 0 0 0 0 1 1 1 1 1 1 1 2 2 2 2 2 3 3 3
0 1 2 2 3 2 2 1 1 0 0 0 0 0 0 0 0 0 0 0 0 0 0 1 0 0 0 0 1 1 1 1 1 1 1 1 2 2 2 2 2 3 3
0 0 1 1 2 2 2 1 1 0 0 0 0 0 0 0 0 0 0 0 0 0 0 1 1 1 0 0 0 0 0 1 1 1 1 1 1 2 2 2 2 2 2
0 0 0 1 1 2 2 2 1 1 0 0 0 0 0 0 0 0 0 0 0 0 0 0 1 1 0 0 0 0 0 0 0 1 1 1 1 1 2 2 2 2 2
0 0 0 0 1 1 1 1 1 1 0 0 0 0 0 0 0 0 0 0 0 0 0 0 0 0 0 0 0 0 0 0 0 1 1 1 1 1 1 1 2 2 2
0 0 0 0 0 1 1 1 1 1 0 0 0 0 0 0 0 0 0 0 0 0 0 0 0 0 0 0 0 0 0 0 0 0 0 0 1 1 1 1 1 1 1
0 0 0 0 0 1 1 1 1 1 1 0 0 0 0 0 0 0 0 0 0 0 0 0 0 0 0 0 0 0 0 0 0 0 0 0 0 1 1 1 1 1 1
0 0 0 0 0 0 1 1 1 1 1 0 0 0 0 0 0 0 0 0 0 0 0 0 0 0 0 0 0 0 0 0 0 0 0 0 0 1 1 1 1 1 1
0 0 0 0 0 0 0 1 1 1 1 1 0 0 0 0 0 0 0 0 0 0 0 0 0 0 0 0 0 0 0 0 0 0 0 0 0 0 1 1 1 1 1
0 0 0 0 0 0 0 1 1 1 1 1 0 0 0 0 0 0 0 0 0 0 0 0 0 0 0 0 0 0 0 0 0 0 0 0 0 0 0 0 1 1 1
0 0 0 0 0 0 0 1 1 1 1 0 0 0 0 0 0 0 0 0 0 0 0 0 0 0 0 0 0 0 0 0 0 0 0 0 0 0 0 0 0 0 0
0 0 0 0 0 0 0 0 0 1 1 0 0 0 0 0 0 0 0 0 0 0 0 0 0 0 0 0 0 0 0 0 0 0 0 0 0 0 0 0 0 0 0
0 0 0 0 0 0 0 0 0 1 1 1 0 0 0 0 0 0 0 0 0 0 0 0 0 0 0 0 0 0 0 0 0 0 0 0 0 0 0 0 0 0 0
0 0 0 0 0 0 0 0 0 1 1 1 0 0 0 0 0 0 0 0 0 0 0 0 0 0 0 0 0 0 0 0 0 0 0 0 0 0 0 0 0 0 0
0 0 0 0 0 0 0 0 0 0 1 0 0 0 0 0 0 0 0 0 0 0 0 0 0 0 0 0 0 0 0 0 0 0 0 0 0 0 0 0 0 0 0
0 0 0 0 0 0 0 0 0 0 0 0 0 0 0 0 0 0 0 0 0 0 0 0 0 0 0 0 0 0 0 0 0 0 0 0 0 0 0 0 0 0 0
0 0 0 0 0 0 0 0 0 0 0 0 0 0 0 0 0 0 0 0 0 0 0 0 0 0 0 0 0 0 0 0 0 0 0 0 0 0 0 0 0 0 0
0 0 0 0 0 0 0 0 0 0 0 0 0 0 0 0 0 0 0 0 0 0 0 0 0 0 0 0 0 0 0 0 0 0 0 0 0 0 0 0 0 0 0
0 0 0 0 0 0 0 0 0 0 0 0 0 0 0 0 0 0 0 0 0 0 0 0 0 0 0 0 0 0 0 0 0 0 0 0 0 0 0 0 0 0 0
0 0 0 0 0 0 0 0 0 0 0 0 0 0 0 0 0 0 0 0 0 0 0 0 0 0 0 0 0 0 0 0 0 0 0 0 0 0 0 0 0 0 0
0 0 0 0 0 0 0 0 0 0 0 0 0 0 0 0 0 0 0 0 0 0 0 0 0 0 0 0 0 0 0 0 0 0 0 0 0 0 0 0 0 0 0
Wind_Speed
1 1 1 2 2 2 2 2 3 3 3 3 3 4 4 4 5 4 3 4 7 9 10 10 10 11 11 11 12 11 11 11 12 12 13 13 13 14 14 14 15 15 15
1 1 1 2 2 2 2 2 3 3 3 3 4 4 5 5 5 5 5 4 6 8 10 10 11 11 12 12 12 13 12 12 13 13 14 14 14 14 15 15 16 16 16
1 1 1 1 2 2 2 3 3 3 3 3 4 5 5 5 5 6 6 5 5 6 8 10 11 12 12 13 13 14 14 14 14 14 14 15 15 16 16 16 17 17 17
2 1 1 1 2 2 2 2 3 3 3 4 4 4 5 5 6 6 6 6 5 5 6 8 11 12 13 14 14 14 14 14 15 15 16 16 16 17 17 18 18 18 17
1 1 2 2 2 2 2 3 3 4 4 5 5 5 5 6 6 6 6 6 6 6 6 7 9 11 13 13 14 14 14 15 15 16 17 17 17 17 17 18 19 19 18
2 2 1 3 3 2 2 3 4 4 4 5 6 6 6 6 6 6 6 6 6 7 7 8 7 7 10 13 14 15 15 15 16 16 17 17 18 18 18 18 19 19 18
2 2 2 2 3 3 3 4 4 5 4 4 5 6 6 7 6 5 6 6 7 7 8 8 7 7 6 11 13 15 16 16 17 17 18 18 18 18 18 17 17 17 18
2 2 3 3 3 3 4 4 4 4 4 4 5 6 6 5 4 5 6 6 8 7 8 8 8 9 8 7 8 13 16 17 18 18 18 18 19 19 19 17 17 17 18
3 3 4 4 4 4 4 5 4 5 5 5 4 4 6 6 7 5 7 7 7 7 8 8 9 10 10 9 9 10 14 17 19 20 20 20 19 20 19 18 18 18 18
4 4 4 5 5 5 5 5 5 5 6 6 5 5 7 7 7 7 6 7 8 9 9 8 9 10 10 9 9 13 15 17 19 20 20 20 20 19 20 19 18 18 17
4 5 5 5 6 5 6 6 6 6 6 7 6 6 8 7 9 9 10 9 8 8 8 9 9 9 10 10 9 11 14 17 19 20 20 20 20 19 19 19 18 18 17
4 5 6 6 7 6 7 7 7 8 8 8 8 7 8 7 8 8 10 11 10 9 9 8 9 9 9 10 11 12 15 17 18 19 19 19 19 19 18 18 18 17 16
5 6 6 7 7 7 8 8 8 9 9 10 9 8 8 9 8 9 10 10 12 10 10 8 8 8 8 9 9 11 14 17 18 18 18 18 18 18 18 18 18 17 17
6 7 8 8 9 9 9 8 8 9 9 10 11 11 9 9 8 9 9 9 10 10 10 11 8 8 7 9 10 12 13 16 17 18 18 17 16 17 16 16 15 16 16
6 8 8 9 9 9 9 9 8 10 10 10 11 12 10 9 9 9 8 8 9 11 11 10 8 8 8 9 10 11 12 14 16 17 17 16 16 15 15 14 12 12 12
7 8 9 9 9 10 10 10 10 10 11 11 9 11 11 9 9 8 8 8 9 10 11 9 9 10 10 9 12 12 12 14 15 16 16 15 14 14 13 12 11 11 10
8 8 9 10 10 10 10 10 11 11 12 12 11 12 13 11 9 9 8 9 9 9 11 11 9 10 12 11 9 9 9 10 8 11 13 14 13 12 12 11 11 9 9
8 9 9 10 10 10 10 11 12 12 12 12 12 12 13 10 12 10 9 10 9 9 10 13 10 9 11 11 10 10 8 7 7 9 11 12 11 11 10 9 8 8 7
8 9 9 10 10 10 11 11 12 12 12 13 13 13 13 12 12 10 10 9 8 8 9 10 10 9 8 8 8 8 8 7 7 7 8 8 7 8 8 8 7 6 4
9 9 9 10 10 11 11 11 12 12 13 12 12 12 13 12 12 11 9 10 9 9 9 8 9 8 8 8 6 6 6 5 5 6 6 5 4 3 2 3 4 4 4
8 9 9 10 10 9 9 11 11 12 12 12 12 12 12 12 13 11 9 9 9 8 7 7 8 7 7 6 5 5 5 5 5 5 4 4 3 2 2 3 5 6 6
8 8 9 10 10 8 11 14 13 11 11 12 11 11 10 11 11 13 15 14 13 10 9 8 7 8 8 7 5 5 5 5 4 4 4 3 2 1 1 2 5 7 6
8 9 9 10 10 11 12 14 14 12 11 10 10 9 8 8 10 9 10 12 12 13 13 11 9 9 8 7 5 6 5 5 5 5 4 3 2 2 2 3 7 7 6
8 9 9 10 10 10 13 14 14 11 10 10 10 10 9 9 8 8 7 8 8 8 9 8 8 8 7 6 5 5 4 3 4 4 3 1 2 2 3 3 7 7 6
8 8 9 9 10 10 12 13 13 8 8 9 9 9 9 9 9 9 7 7 7 7 5 5 6 6 6 6 5 2 2 2 2 3 3 1 1 2 3 3 5 7 6
8 8 9 9 10 10 11 13 12 6 7 7 7 7 8 8 8 8 7 6 7 6 4 4 3 3 3 3 3 3 3 2 1 1 1 1 1 1 2 3 3 3 4
Wind_Direction
52 43 36 29 18 8 359 346 341 343 334 333 328 318 311 307 302 302 303 303 296 295 294 293 293 292 289 289 283 277 274 267 265 262 255 251 248 244 241 240 238 236 235
49 25 29 18 7 1 353 336 336 328 322 319 313 308 300 298 294 296 295 287 281 287 290 291 291 291 290 288 285 281 275 272 268 264 261 256 251 248 246 243 242 240 237
25 19 4 359 356 345 341 335 335 323 320 311 303 302 295 289 288 287 288 288 282 280 284 288 292 293 291 290 287 284 279 276 272 268 265 262 257 253 250 247 244 243 240
360 341 341 344 335 329 327 327 324 322 315 305 299 296 290 287 282 285 287 286 285 285 282 285 289 291 292 291 287 285 283 280 276 272 267 263 261 258 255 252 247 244 242
325 328 334 323 316 317 321 320 321 317 311 307 299 291 289 284 279 278 279 280 282 282 283 285 283 285 289 290 289 288 286 284 279 276 272 267 263 260 258 257 251 245 243
317 314 307 314 315 307 312 314 314 311 305 304 299 291 284 279 273 271 276 277 279 280 282 286 283 277 281 286 287 287 287 286 284 279 276 274 269 263 260 258 255 250 247
305 302 297 303 304 302 303 303 304 302 304 311 302 298 286 270 271 272 274 280 283 281 281 281 282 285 283 281 282 283 285 285 285 284 280 276 273 268 263 260 257 254 252
285 288 291 290 291 287 286 292 301 299 304 308 306 306 298 283 267 276 276 276 280 280 281 281 281 282 284 283 281 283 282 283 282 282 281 277 274 271 266 261 259 258 255
275 276 282 284 284 281 281 284 287 287 294 294 290 291 295 293 307 275 278 277 279 281 281 280 280 281 281 281 282 280 283 284 283 280 281 278 275 273 268 264 260 258 255
272 273 274 277 277 277 277 278 280 284 283 281 277 268 273 286 289 292 280 279 283 282 283 283 283 282 280 279 277 279 279 281 283 281 278 279 276 273 269 267 263 259 256
271 273 275 276 276 276 277 279 279 277 274 274 276 274 275 274 268 276 286 288 284 280 283 284 282 281 281 279 277 278 281 282 284 283 279 278 277 273 272 268 268 262 259
270 271 274 273 273 274 274 275 274 271 269 269 269 266 269 269 271 274 281 286 287 287 286 282 280 279 278 278 276 280 283 284 284 283 279 277 276 274 273 268 268 265 262
275 275 274 272 273 273 273 274 273 269 266 265 265 265 264 264 268 269 275 282 286 288 285 279 275 277 278 279 280 283 284 284 284 284 281 277 276 276 271 267 265 263 262
275 277 274 272 273 273 272 271 272 270 266 265 265 265 264 262 261 261 265 277 283 286 284 284 286 280 284 286 287 287 283 281 282 281 282 280 277 276 270 267 262 261 260
275 274 275 274 273 273 271 271 268 271 271 266 266 265 263 262 260 258 259 261 269 282 286 289 290 288 289 288 286 283 283 281 282 281 279 279 275 272 267 265 260 260 255
274 275 276 275 275 274 273 271 273 271 271 269 266 264 264 262 261 256 254 255 255 265 277 285 289 289 291 287 285 283 282 284 278 277 277 276 272 269 266 261 258 254 248
277 276 277 277 276 277 277 274 273 274 272 272 269 266 264 263 261 258 255 255 256 258 270 283 285 289 288 288 291 289 287 286 283 278 277 278 272 266 260 256 250 245 246
282 279 278 277 278 279 279 277 276 273 270 270 269 267 265 263 259 257 254 255 258 258 266 278 286 289 287 289 292 293 293 292 290 289 287 284 272 266 258 250 244 243 239
286 282 280 279 280 280 279 276 275 273 270 269 268 266 265 261 259 256 255 257 259 261 263 271 282 287 289 290 293 292 295 299 304 306 301 292 281 272 259 247 236 223 204
288 287 283 281 281 280 278 276 275 275 273 271 268 266 264 259 258 258 256 257 260 262 263 268 277 284 288 291 291 293 304 310 314 317 315 319 319 322 251 208 173 152 151
289 288 287 285 283 281 277 281 282 280 278 276 273 268 265 262 258 256 256 257 256 257 262 268 273 279 284 288 289 297 301 312 317 320 321 329 337 8 45 92 99 104 107
294 292 289 289 288 284 286 288 288 283 281 278 277 274 270 263 257 255 257 257 255 255 261 265 270 270 277 282 288 293 299 305 313 329 327 335 343 14 30 60 92 94 94
297 295 294 293 290 291 293 293 293 289 282 280 278 276 273 268 261 258 259 259 257 254 252 258 265 266 271 275 280 286 290 301 304 312 320 331 346 21 30 77 95 100 98
296 295 294 292 292 294 298 300 300 290 283 281 279 275 272 273 266 263 265 266 267 266 260 255 260 267 269 274 270 272 281 303 317 320 320 334 5 21 28 54 86 90 89
297 295 294 294 295 296 298 300 299 291 283 284 282 278 273 272 269 265 264 266 272 277 276 258 261 268 280 279 274 267 261 271 302 328 336 356 41 36 31 37 61 70 72
295 297 296 295 295 296 299 300 299 289 287 287 284 281 273 272 276 268 262 261 266 275 284 293 284 276 275 286 285 262 248 240 267 303 328 5 62 45 39 22 27 31 46